TimeMDT,TemperatureF,Dew PointF,Humidity,Sea Level PressureIn,VisibilityMPH,Wind Direction,Wind SpeedMPH,Gust SpeedMPH,PrecipitationIn,Events,Conditions,WindDirDegrees,DateUTC
12:15 AM,48.2,26.6,43,30.17,10.0,NW,6.9,-,N/A,,Clear,310,2012-10-03 06:15:00
12:35 AM,46.4,26.6,46,30.17,10.0,NW,6.9,-,N/A,,Clear,320,2012-10-03 06:35:00
12:55 AM,44.6,26.6,49,30.16,10.0,NW,8.1,-,N/A,,Clear,310,2012-10-03 06:55:00
1:15 AM,46.4,26.6,46,30.17,10.0,NW,8.1,-,N/A,,Clear,320,2012-10-03 07:15:00
1:35 AM,46.4,26.6,46,30.17,10.0,NW,5.8,-,N/A,,Clear,310,2012-10-03 07:35:00
1:55 AM,42.8,26.6,53,30.17,10.0,NNW,5.8,-,N/A,,Clear,330,2012-10-03 07:55:00
2:15 AM,41.0,26.6,57,30.17,10.0,NW,6.9,-,N/A,,Clear,320,2012-10-03 08:15:00
2:35 AM,41.0,26.6,57,30.17,10.0,NNW,4.6,-,N/A,,Clear,330,2012-10-03 08:35:00
2:55 AM,39.2,24.8,56,30.18,10.0,NW,6.9,-,N/A,,Clear,320,2012-10-03 08:55:00
3:15 AM,42.8,26.6,53,30.18,10.0,NW,5.8,-,N/A,,Clear,320,2012-10-03 09:15:00
3:35 AM,39.2,24.8,56,30.18,10.0,NW,5.8,-,N/A,,Clear,320,2012-10-03 09:35:00
4:15 AM,39.2,24.8,56,30.18,10.0,NW,4.6,-,N/A,,Clear,320,2012-10-03 10:15:00
4:35 AM,35.6,24.8,65,30.18,10.0,NNW,3.5,-,N/A,,Clear,330,2012-10-03 10:35:00
4:55 AM,35.6,24.8,65,30.18,10.0,NW,5.8,-,N/A,,Clear,310,2012-10-03 10:55:00
5:15 AM,37.4,24.8,60,30.18,10.0,WNW,4.6,-,N/A,,Clear,300,2012-10-03 11:15:00
5:55 AM,35.6,23.0,60,30.19,10.0,North,3.5,-,N/A,,Clear,350,2012-10-03 11:55:00
6:15 AM,33.8,23.0,65,30.20,10.0,North,3.5,-,N/A,,Clear,360,2012-10-03 12:15:00
6:55 AM,33.8,23.0,65,30.20,10.0,North,3.5,-,N/A,,Clear,350,2012-10-03 12:55:00
7:15 AM,32.0,23.0,69,30.20,10.0,North,3.5,-,N/A,,Clear,350,2012-10-03 13:15:00
7:35 AM,32.0,23.0,69,30.20,10.0,NW,3.5,-,N/A,,Clear,320,2012-10-03 13:35:00
7:55 AM,37.4,24.8,60,30.20,10.0,NW,3.5,-,N/A,,Clear,310,2012-10-03 13:55:00
8:15 AM,44.6,26.6,49,30.21,10.0,Calm,Calm,-,N/A,,Clear,0,2012-10-03 14:15:00
8:35 AM,46.4,24.8,43,30.21,10.0,Calm,Calm,-,N/A,,Clear,0,2012-10-03 14:35:00
8:55 AM,50.0,24.8,37,30.22,10.0,Calm,Calm,-,N/A,,Clear,0,2012-10-03 14:55:00
9:15 AM,51.8,24.8,35,30.22,10.0,NW,3.5,-,N/A,,Clear,310,2012-10-03 15:15:00
9:35 AM,55.4,26.6,33,30.22,10.0,WNW,3.5,-,N/A,,Clear,300,2012-10-03 15:35:00
9:55 AM,60.8,26.6,27,30.22,10.0,Calm,Calm,-,N/A,,Clear,0,2012-10-03 15:55:00
10:15 AM,64.4,26.6,24,30.22,10.0,Calm,Calm,-,N/A,,Clear,0,2012-10-03 16:15:00
10:35 AM,66.2,26.6,23,30.22,10.0,Calm,Calm,-,N/A,,Clear,0,2012-10-03 16:35:00
10:55 AM,69.8,26.6,20,30.21,10.0,Calm,Calm,-,N/A,,Clear,0,2012-10-03 16:55:00
11:15 AM,71.6,26.6,19,30.21,10.0,Calm,Calm,-,N/A,,Clear,0,2012-10-03 17:15:00
11:35 AM,77.0,26.6,16,30.21,10.0,North,5.8,-,N/A,,Clear,360,2012-10-03 17:35:00
12:15 PM,80.6,23.0,12,30.19,10.0,NW,16.1,24.2,N/A,,Clear,310,2012-10-03 18:15:00
12:35 PM,82.4,23.0,11,30.19,10.0,WNW,13.8,24.2,N/A,,Clear,300,2012-10-03 18:35:00
12:55 PM,82.4,23.0,11,30.18,10.0,NW,18.4,25.3,N/A,,Clear,320,2012-10-03 18:55:00
1:15 PM,82.4,21.2,10,30.18,10.0,NW,19.6,26.5,N/A,,Clear,320,2012-10-03 19:15:00
1:35 PM,82.4,21.2,10,30.17,10.0,NW,18.4,27.6,N/A,,Clear,320,2012-10-03 19:35:00
1:55 PM,82.4,19.4,10,30.17,10.0,NW,20.7,27.6,N/A,,Clear,310,2012-10-03 19:55:00
2:15 PM,82.4,21.2,10,30.16,10.0,NW,15.0,26.5,N/A,,Clear,320,2012-10-03 20:15:00
2:35 PM,82.4,21.2,10,30.16,10.0,NW,13.8,21.9,N/A,,Clear,310,2012-10-03 20:35:00
2:55 PM,82.4,21.2,10,30.15,10.0,NW,13.8,23.0,N/A,,Clear,310,2012-10-03 20:55:00
3:15 PM,84.2,21.2,10,30.15,10.0,NW,16.1,25.3,N/A,,Clear,310,2012-10-03 21:15:00
3:35 PM,84.2,21.2,10,30.15,10.0,WNW,15.0,21.9,N/A,,Clear,290,2012-10-03 21:35:00
3:55 PM,82.4,23.0,11,30.15,10.0,WNW,16.1,26.5,N/A,,Clear,290,2012-10-03 21:55:00
4:15 PM,82.4,23.0,11,30.15,10.0,NW,10.4,18.4,N/A,,Clear,310,2012-10-03 22:15:00
4:35 PM,82.4,23.0,11,30.15,10.0,West,16.1,25.3,N/A,,Clear,280,2012-10-03 22:35:00
4:55 PM,82.4,23.0,11,30.15,10.0,WNW,19.6,23.0,N/A,,Clear,300,2012-10-03 22:55:00
5:15 PM,82.4,23.0,11,30.15,10.0,West,16.1,19.6,N/A,,Clear,270,2012-10-03 23:15:00
5:35 PM,80.6,23.0,12,30.15,10.0,West,13.8,21.9,N/A,,Clear,270,2012-10-03 23:35:00
5:55 PM,78.8,21.2,12,30.16,10.0,WNW,13.8,21.9,N/A,,Clear,290,2012-10-03 23:55:00
6:15 PM,78.8,21.2,12,30.16,10.0,West,11.5,21.9,N/A,,Clear,270,2012-10-04 00:15:00
6:35 PM,77.0,21.2,12,30.17,10.0,West,12.7,19.6,N/A,,Clear,280,2012-10-04 00:35:00
6:55 PM,73.4,21.2,14,30.17,10.0,West,12.7,18.4,N/A,,Clear,280,2012-10-04 00:55:00
7:15 PM,71.6,21.2,15,30.18,10.0,West,8.1,-,N/A,,Clear,270,2012-10-04 01:15:00
7:35 PM,69.8,19.4,15,30.18,10.0,West,9.2,-,N/A,,Clear,260,2012-10-04 01:35:00
7:55 PM,68.0,19.4,16,30.19,10.0,West,8.1,-,N/A,,Clear,260,2012-10-04 01:55:00
8:15 PM,68.0,19.4,16,30.20,10.0,WSW,8.1,-,N/A,,Clear,250,2012-10-04 02:15:00
8:35 PM,64.4,21.2,19,30.20,10.0,WSW,8.1,-,N/A,,Clear,250,2012-10-04 02:35:00
8:55 PM,66.2,19.4,17,30.21,10.0,WSW,8.1,-,N/A,,Clear,250,2012-10-04 02:55:00
9:15 PM,64.4,21.2,19,30.21,10.0,WSW,5.8,-,N/A,,Clear,250,2012-10-04 03:15:00
9:35 PM,62.6,21.2,20,30.22,10.0,Calm,Calm,-,N/A,,Clear,0,2012-10-04 03:35:00
9:55 PM,57.2,21.2,25,30.23,10.0,NW,4.6,-,N/A,,Clear,320,2012-10-04 03:55:00
10:15 PM,59.0,23.0,25,30.24,10.0,NW,6.9,-,N/A,,Clear,320,2012-10-04 04:15:00
10:35 PM,59.0,21.2,23,30.24,10.0,NNW,5.8,-,N/A,,Clear,330,2012-10-04 04:35:00
10:55 PM,51.8,23.0,33,30.24,10.0,NNW,5.8,-,N/A,,Clear,340,2012-10-04 04:55:00
11:15 PM,51.8,21.2,30,30.24,10.0,NNW,5.8,-,N/A,,Clear,330,2012-10-04 05:15:00
11:35 PM,60.8,23.0,23,30.25,10.0,NW,6.9,-,N/A,,Clear,320,2012-10-04 05:35:00
11:55 PM,62.6,26.6,26,30.25,10.0,West,11.5,16.1,N/A,,Clear,270,2012-10-04 05:55:00